GFSCGP_sfc_30mbdewp_021.txt.gz
Dewpoint
27 22 20 20 20 20 18 17 16 18 20 19 19 18 17 16 16 15 16 17 17 19 22 24 26 28 28 29 30 29 29 30 33 39 44 47 49 51 51 52 51 51 50 47
25 20 21 21 22 21 19 18 18 19 19 19 18 17 17 18 18 17 18 18 19 20 23 24 26 27 28 30 30 29 29 29 31 35 41 42 44 46 48 49 50 50 49 46
23 23 23 22 21 20 19 18 18 18 20 18 17 16 19 18 21 20 17 20 24 24 24 25 27 27 28 29 30 30 30 30 30 32 37 40 43 40 42 45 47 48 48 47
25 25 23 22 21 20 18 20 20 18 17 17 20 18 19 20 19 17 18 23 25 26 27 29 29 29 29 29 30 28 30 30 31 33 35 37 38 36 36 37 41 44 45 45
21 23 23 21 20 22 19 22 18 18 19 20 20 18 19 20 19 16 21 25 27 27 27 28 29 29 29 30 30 29 28 29 31 32 33 34 35 35 35 34 35 39 42 42
22 23 21 20 20 22 21 19 18 19 21 20 20 19 18 17 15 17 22 26 27 28 27 26 27 28 28 30 29 29 28 28 29 29 30 31 32 33 33 34 34 36 38 39
23 22 22 22 20 22 21 19 20 18 19 22 20 22 21 21 17 18 23 27 27 27 27 26 25 25 26 26 28 26 27 27 29 30 29 28 29 30 30 31 32 32 34 35
22 18 23 22 21 23 23 22 21 16 17 21 24 23 23 22 23 26 27 27 27 27 28 26 24 23 24 25 25 25 24 22 25 27 29 29 29 29 29 29 30 30 31 32
21 21 27 25 23 22 23 22 23 22 23 24 22 23 24 23 25 27 27 26 25 26 26 27 24 23 23 22 21 23 23 23 22 24 26 28 29 29 28 28 29 29 29 29
30 27 29 27 26 24 21 23 23 23 22 18 19 18 17 20 24 28 26 24 23 23 23 24 24 22 21 22 22 20 20 19 19 22 24 24 25 26 27 29 29 29 29 29
32 33 26 27 25 23 22 22 22 23 24 22 19 18 25 27 27 28 24 23 21 19 18 20 24 19 16 16 17 18 19 18 17 19 22 22 23 23 22 22 25 29 29 29
29 28 26 23 23 25 27 27 25 23 23 23 22 25 29 30 28 25 22 22 21 21 16 14 21 19 12 12 13 12 13 16 17 17 20 20 20 21 19 19 22 27 28 29
34 30 24 20 18 32 31 31 30 31 31 27 25 22 30 29 28 27 27 25 21 20 6 6 10 16 12 9 9 8 9 12 15 14 17 18 20 22 20 18 20 24 25 26
36 32 28 20 17 23 25 28 29 31 26 24 23 26 27 32 31 29 28 23 21 15 11 9 8 10 11 9 6 7 7 8 15 12 13 16 17 19 18 17 19 23 24 23
29 25 26 25 23 23 24 24 24 23 25 23 22 24 23 21 20 21 19 17 19 14 8 7 8 11 12 12 9 8 9 10 12 15 14 15 17 17 19 19 19 23 24 22
23 22 22 21 20 19 18 20 20 22 23 22 21 19 17 16 15 14 12 10 7 6 11 7 8 9 11 14 13 12 12 13 15 19 19 19 21 20 19 19 17 20 21 18
21 20 19 14 15 14 13 14 13 14 15 13 11 17 18 16 13 10 10 9 8 6 7 8 6 8 10 13 16 15 14 15 18 21 21 20 20 19 17 16 15 15 16 16
21 21 20 15 15 9 9 6 9 10 12 15 22 20 11 4 3 4 5 8 10 6 5 7 9 10 14 16 16 15 17 19 19 20 20 20 18 17 16 14 13 13 13 14
13 15 15 13 11 9 10 8 6 5 7 11 20 7 4 3 3 2 1 4 5 6 7 10 13 15 17 17 16 16 16 16 17 16 16 16 15 16 16 14 12 12 13 13
11 13 14 12 9 3 0 6 8 9 6 19 10 7 9 7 2 1 4 8 8 9 11 13 15 19 19 17 15 15 15 15 14 14 14 14 15 15 15 14 13 12 12 13
7 13 14 12 10 8 9 13 11 7 7 16 16 12 10 8 8 9 10 9 10 12 15 17 20 18 16 15 14 13 13 12 12 13 14 14 14 14 13 13 12 12 10 10
0 1 6 9 6 1 10 10 7 7 11 13 12 9 8 9 9 9 8 9 10 13 17 17 16 15 14 11 12 11 10 10 11 10 9 9 10 10 10 10 10 9 9 8
5 3 3 5 2 4 8 10 11 11 13 14 10 10 10 10 9 9 9 11 15 17 15 16 15 13 9 10 10 8 7 7 6 5 4 3 4 4 5 6 7 7 7 7
7 8 5 8 7 7 8 9 9 10 11 11 11 12 12 11 11 13 16 16 15 14 12 11 10 9 8 6 5 5 4 3 1 0 -0 -0 -0 0 0 1 2 2 4 4
10 8 8 10 9 10 10 9 10 10 12 12 13 13 13 13 15 13 13 12 10 8 7 7 6 5 4 3 3 2 1 0 -1 -1 -2 -1 -2 -2 -2 -1 -1 -1 1 2
12 11 9 7 7 7 7 8 10 9 10 12 13 16 15 13 11 9 8 7 5 4 4 3 3 2 2 1 0 -0 -0 -1 -1 -2 -2 -2 -2 -2 -2 -2 -2 -2 -1 1

GFSCGP_sfc_30mbdewp_024.txt.gz
Dewpoint
27 24 21 22 21 21 21 20 19 20 21 20 21 21 20 20 20 18 19 19 23 24 26 28 29 30 31 31 31 31 31 31 35 40 44 47 50 52 53 54 53 54 53 51
27 24 24 24 23 22 21 21 19 20 20 21 20 20 19 19 19 20 20 23 24 25 27 29 30 31 31 31 30 31 32 32 33 35 42 44 45 47 50 51 51 51 51 50
24 25 27 25 22 21 21 21 20 19 21 18 19 19 20 22 21 23 25 25 27 28 28 29 30 30 31 31 29 30 31 32 34 36 38 41 42 41 40 44 46 49 49 49
26 27 25 25 23 23 20 21 21 20 17 16 22 19 21 22 22 24 25 27 27 28 29 29 29 30 31 31 31 30 30 31 32 34 36 37 38 37 37 38 42 45 46 47
25 23 22 22 22 22 21 22 20 18 17 19 21 21 21 22 21 24 26 28 28 27 27 28 28 28 31 31 31 30 30 31 31 31 32 33 34 34 36 36 35 37 42 44
24 22 22 22 20 22 23 19 20 19 18 20 22 20 19 17 18 23 26 28 28 27 26 26 27 27 27 29 27 26 27 29 31 31 30 30 30 31 31 32 33 35 38 39
24 22 23 22 21 22 22 20 20 19 20 19 24 22 21 20 18 22 26 27 28 27 25 24 25 25 26 26 27 25 24 24 27 29 30 30 30 30 30 30 31 31 32 35
23 21 23 22 22 23 24 23 20 17 13 17 24 21 22 23 25 27 28 28 27 27 27 25 24 24 24 23 24 24 24 23 24 25 27 29 30 30 30 30 30 30 30 31
21 17 24 24 24 23 23 22 24 22 23 22 22 21 22 25 27 27 26 25 26 26 27 25 23 23 24 23 21 21 20 20 21 24 25 25 25 24 25 28 30 30 30 29
30 27 28 27 27 25 23 23 24 24 22 20 19 18 17 25 26 27 24 23 23 22 22 24 22 19 19 19 20 20 20 19 19 22 24 22 23 23 22 22 24 27 29 30
31 32 27 27 26 23 22 23 23 24 23 20 16 16 27 28 28 25 23 23 21 19 17 21 23 16 14 15 14 15 17 18 17 20 22 22 22 22 20 19 21 24 26 27
31 30 27 26 26 26 25 25 26 24 21 22 22 21 30 29 26 24 23 23 22 22 14 13 19 17 12 12 12 11 13 16 16 16 19 19 21 22 20 17 18 22 24 25
34 30 23 17 14 32 30 30 28 27 32 26 23 22 29 27 26 25 31 30 27 23 13 15 16 19 16 13 11 10 10 12 16 14 14 17 18 19 19 16 17 19 23 23
34 29 24 14 12 21 22 23 24 26 24 21 20 20 21 27 31 32 33 31 25 21 12 10 9 10 13 12 10 9 9 11 13 15 15 15 16 17 18 19 19 18 18 23
30 26 27 26 26 25 23 22 22 22 22 20 18 17 19 21 22 18 18 17 19 19 14 9 7 9 11 13 15 13 12 13 15 16 18 18 19 20 20 20 20 19 18 22
26 21 22 20 22 21 19 19 18 17 17 18 18 18 19 17 14 14 14 12 10 6 6 9 7 8 10 12 15 15 14 15 16 15 16 17 19 19 19 20 19 17 17 17
22 21 19 15 15 15 11 12 12 11 12 12 11 14 18 16 12 7 6 10 11 10 8 7 9 7 10 13 16 17 18 17 17 17 18 19 20 19 19 18 17 15 14 13
21 19 19 14 14 7 2 7 9 8 8 10 17 20 15 6 4 5 5 6 8 9 6 7 10 11 14 17 18 17 17 17 18 18 19 20 20 19 19 18 17 15 14 12
21 20 16 12 9 6 7 7 5 5 5 9 9 19 5 6 6 4 4 8 7 7 9 11 13 17 19 19 17 16 16 16 16 16 17 16 16 16 16 15 15 15 14 13
10 13 13 12 10 3 0 6 8 9 5 12 16 9 10 12 7 6 9 10 10 10 11 14 17 21 18 17 16 14 14 14 13 13 15 15 15 14 13 13 14 14 14 14
7 9 10 11 10 10 11 11 9 5 4 14 10 11 12 10 10 11 12 11 11 12 14 19 18 17 16 14 12 11 11 10 11 11 10 8 7 8 8 7 8 8 8 9
2 2 6 10 10 6 8 10 6 9 16 14 12 12 12 12 11 11 10 10 10 15 17 17 16 15 13 11 10 8 7 7 7 6 5 3 2 2 2 2 2 3 4 4
4 2 -0 3 5 9 11 7 12 11 11 13 15 15 13 12 11 11 10 11 17 16 15 14 11 10 10 9 8 6 5 5 4 2 0 -0 -0 -0 -0 -0 -0 -0 0 1
8 7 5 7 7 7 7 9 10 10 11 12 13 12 13 13 12 12 15 16 16 14 11 10 8 7 6 6 5 4 3 3 1 -0 -1 -1 -1 -1 -1 -1 -1 -1 -1 -1
10 10 8 9 10 10 10 11 12 12 12 12 13 13 13 13 13 15 15 13 12 9 8 7 5 4 4 3 3 2 2 1 -0 -1 -1 -1 -2 -2 -2 -2 -2 -1 1 2
15 12 9 9 9 8 8 9 11 11 12 12 12 14 16 15 15 12 11 9 6 6 5 3 3 2 1 1 0 0 -0 -1 -1 -1 -2 -3 -3 -3 -3 -3 -3 -2 0 2

GFSCGP_sfc_30mbdewp_030.txt.gz
Dewpoint
27 19 14 15 19 15 17 18 19 21 22 21 20 21 21 22 22 21 26 28 28 29 29 30 30 30 30 30 31 31 31 33 37 39 44 46 48 48 51 52 54 57 58 55
26 20 20 21 21 20 20 21 21 22 22 21 20 19 20 21 24 24 26 28 28 28 29 28 28 27 28 29 30 30 30 31 32 35 38 42 41 39 40 43 45 48 53 54
24 25 27 25 24 24 23 21 21 22 22 20 19 20 21 25 27 28 29 28 28 28 27 27 26 25 24 25 27 29 30 30 31 32 34 34 35 34 35 35 36 40 44 46
25 26 25 26 25 25 24 25 23 22 20 19 19 16 19 23 25 27 27 27 27 26 26 26 26 25 24 24 25 26 28 29 30 31 31 32 31 31 32 33 33 34 36 37
27 26 24 24 25 26 24 23 20 19 18 18 17 16 17 24 24 26 26 26 26 26 25 25 25 25 24 23 23 24 25 26 27 27 30 30 30 30 31 31 31 32 32 33
25 23 23 22 23 24 22 20 22 21 19 18 18 18 20 21 23 26 26 25 25 25 25 24 24 23 22 21 21 22 23 24 25 24 23 23 24 24 23 26 27 29 30 31
22 23 24 22 20 22 20 21 19 15 17 17 23 21 21 25 25 26 25 24 24 23 23 23 22 21 21 18 17 19 20 21 23 22 22 21 21 21 21 22 23 24 25 26
23 22 23 23 21 21 20 21 17 7 12 15 22 14 19 27 27 26 26 25 25 24 23 23 23 22 20 18 15 15 18 20 21 19 19 20 18 19 19 20 21 22 23 23
23 23 23 23 24 24 23 22 24 21 21 21 20 24 27 26 26 27 27 27 26 25 23 22 22 22 20 19 17 14 13 16 20 21 20 20 20 17 15 16 18 19 21 20
27 23 28 27 26 24 24 25 22 23 16 13 17 20 20 25 25 25 25 25 25 25 24 22 20 19 19 18 18 16 14 13 15 19 20 19 19 19 18 17 16 16 17 20
32 27 26 27 28 25 24 23 24 24 23 13 10 10 24 25 25 24 24 24 23 22 24 21 17 16 16 16 17 17 15 12 12 13 17 17 17 17 17 17 17 17 17 17
31 30 25 26 26 27 25 23 24 20 18 23 21 13 29 28 26 25 24 24 22 21 20 23 15 15 14 13 12 12 15 15 15 15 15 15 16 16 16 16 17 18 17 18
31 27 24 21 20 29 25 27 25 27 27 20 20 19 28 27 25 25 25 25 24 22 16 22 16 13 12 12 12 12 13 15 17 16 15 15 16 17 17 18 18 19 19 18
32 28 23 16 10 24 21 23 24 21 21 20 22 22 23 26 26 24 25 26 25 23 15 17 20 19 16 14 12 10 11 13 15 17 16 17 17 18 18 19 20 20 20 20
30 27 28 26 25 25 24 23 23 22 20 16 12 12 14 17 18 17 19 25 30 26 17 14 13 14 15 13 11 12 13 13 15 15 16 17 18 19 19 20 21 21 21 20
28 23 25 21 23 23 22 21 21 22 21 21 20 18 18 16 16 17 16 21 26 25 20 13 12 11 12 12 12 14 15 16 17 17 17 17 17 17 18 20 20 18 16 14
27 22 20 19 16 13 11 11 12 8 12 11 7 10 14 13 15 15 14 12 10 10 9 7 8 11 10 10 11 14 18 18 16 15 15 14 15 16 17 16 13 11 9 9
23 21 18 14 10 6 5 8 8 9 10 13 13 12 13 14 16 12 10 7 6 8 10 9 7 10 11 14 18 18 17 15 14 12 10 15 15 12 10 8 7 7 7 7
22 19 16 14 10 8 5 3 5 7 5 10 11 8 10 16 7 5 5 6 6 7 9 8 9 11 18 18 17 15 13 11 8 8 14 12 8 6 7 6 5 5 4 4
21 21 17 10 6 -4 -3 6 8 7 -2 8 8 7 9 10 6 6 6 9 9 9 10 10 13 20 18 16 13 11 9 6 6 12 9 6 7 6 4 3 2 3 3 3
16 18 15 11 8 7 8 9 9 1 -3 4 8 7 13 10 9 11 10 10 11 12 13 16 19 18 16 13 9 7 6 5 9 6 6 5 4 3 2 2 2 1 1 1
6 8 11 12 10 6 12 11 6 6 10 8 12 13 13 12 11 11 12 13 14 13 16 19 18 15 13 9 5 3 1 6 4 4 3 1 0 0 1 1 0 -0 -0 -0
-1 3 1 8 7 10 13 10 11 10 5 12 12 12 13 11 11 11 13 14 13 13 17 18 16 12 10 7 4 0 3 3 3 1 -1 -2 -1 0 1 0 -0 -1 -1 -2
7 9 3 5 5 8 9 12 10 12 12 11 14 11 12 11 13 13 14 13 13 15 16 13 10 8 5 6 5 1 2 2 -0 -2 -3 -1 -0 -0 -0 -0 -1 -1 -2 -2
7 9 7 7 8 9 10 11 10 10 13 14 15 14 14 14 14 14 13 14 15 16 14 11 8 5 3 4 1 0 0 -1 -2 -2 -1 -1 -0 -1 -1 -1 -1 -1 1 2
11 9 9 8 8 8 8 10 11 12 12 13 14 13 15 15 14 14 15 15 16 14 10 7 4 2 1 -1 -2 -2 -2 -3 -3 -2 -1 -1 -1 -0 -1 -2 -2 -1 2 4

GFSCGP_sfc_30mbdewp_033.txt.gz
Dewpoint
26 17 15 18 19 16 15 17 18 20 22 22 21 21 22 22 23 26 27 27 28 28 28 26 26 27 28 29 30 30 31 32 35 38 42 41 38 39 38 40 43 47 50 54
24 17 17 19 19 19 19 18 19 22 23 22 22 21 21 25 26 27 27 27 27 26 25 24 24 24 25 26 28 29 30 31 32 34 35 38 37 36 35 35 36 38 40 43
23 24 25 22 23 21 22 21 22 21 23 21 20 19 21 27 28 28 28 28 27 25 24 24 23 23 24 24 26 27 28 29 31 32 32 32 32 31 31 32 33 33 33 32
25 26 26 25 24 24 23 25 23 23 21 19 19 17 18 24 26 27 26 26 25 25 25 24 22 21 22 23 24 25 24 24 27 30 30 29 28 27 29 31 31 31 31 30
27 27 25 24 25 26 25 24 23 20 19 18 18 18 17 25 24 26 26 25 25 24 24 23 22 20 20 22 22 23 23 22 21 22 24 22 20 23 22 23 23 25 26 26
27 24 24 25 23 26 23 20 23 22 19 19 19 18 18 22 23 26 26 25 25 24 23 23 22 20 18 19 20 21 20 20 20 19 19 18 17 17 16 18 18 21 22 22
25 24 24 22 21 22 21 21 18 15 17 17 22 19 18 25 27 26 25 25 24 24 23 22 20 18 14 14 17 18 18 16 18 17 16 16 16 16 16 17 18 17 18 19
22 21 23 23 21 20 20 21 18 8 10 11 22 21 19 27 26 26 25 24 23 23 23 23 22 19 14 12 14 16 18 18 18 18 18 16 15 15 16 16 16 18 18 19
23 23 23 22 24 23 23 20 23 20 20 20 20 22 26 26 26 25 24 24 23 23 23 23 23 20 17 12 11 11 15 18 18 17 16 17 16 15 15 16 17 16 17 17
25 22 26 25 25 24 24 25 22 22 17 16 16 19 17 24 25 26 26 26 26 25 24 22 21 20 18 16 16 14 12 13 17 18 17 17 17 17 17 17 16 17 17 17
29 26 26 27 26 24 23 23 24 23 20 13 10 10 22 23 26 26 26 26 26 26 25 22 20 19 17 17 16 14 12 11 12 15 16 15 16 16 16 17 17 18 18 18
31 28 25 26 27 27 25 24 24 20 17 22 18 15 29 26 26 26 26 26 25 24 24 23 18 16 16 14 13 12 13 12 13 14 14 15 15 16 16 17 17 19 18 19
31 27 23 23 23 28 26 25 25 27 24 18 18 17 28 27 26 26 25 25 25 24 21 23 16 15 14 12 11 10 13 14 15 15 15 15 16 17 17 17 18 19 19 19
31 27 24 21 19 24 25 25 25 23 21 20 20 20 27 26 26 25 26 26 25 24 21 21 17 14 13 12 11 11 12 14 16 17 16 17 17 18 18 19 20 20 20 20
30 26 27 23 20 23 22 22 23 21 21 20 20 20 22 25 26 26 23 19 22 25 21 18 20 18 17 14 13 12 10 12 15 15 16 17 18 18 19 19 19 18 17 15
28 27 26 25 26 27 25 26 24 23 22 21 20 20 22 20 19 16 17 19 25 28 25 16 15 15 16 16 14 12 12 14 15 17 16 16 16 16 16 14 12 9 8 8
27 25 23 22 18 15 18 18 21 21 22 21 18 18 16 12 14 15 16 15 18 22 25 21 15 13 12 13 14 13 14 19 17 15 12 13 13 11 9 8 7 7 6 7
27 25 24 19 14 13 14 9 10 13 14 13 12 11 10 12 14 15 16 15 12 11 11 11 9 9 11 12 13 15 18 17 14 11 10 12 9 5 5 6 5 5 5 4
24 25 21 19 14 13 13 10 3 1 -5 9 10 12 14 14 10 9 8 9 8 6 7 9 11 9 11 14 17 18 15 13 9 9 12 9 5 3 4 2 4 4 4 3
23 23 24 12 14 11 8 5 8 7 -0 6 12 12 7 10 2 2 8 6 6 7 8 9 10 13 15 17 17 15 13 9 6 11 8 6 6 3 2 3 2 3 3 2
14 19 18 15 15 12 9 8 8 -2 -7 7 9 5 9 6 6 9 10 7 9 10 10 12 13 14 16 16 13 12 10 5 10 6 4 4 3 2 1 2 2 1 1 1
2 6 11 15 12 9 11 9 5 6 7 7 8 7 8 9 9 11 11 9 9 10 13 15 16 17 16 14 11 9 6 7 5 3 2 1 -0 -1 1 -1 -1 -0 -0 -1
-1 2 1 8 8 11 13 10 11 12 7 10 10 9 11 11 11 12 11 12 12 13 13 16 17 16 13 10 7 6 4 4 3 1 -1 -2 -2 -1 -0 -1 -1 -1 -1 -1
8 9 4 7 8 8 10 12 13 13 12 11 12 10 11 11 12 12 12 11 13 14 14 16 17 15 12 8 5 2 2 3 -1 -2 -3 -2 -2 -1 -1 -0 0 -0 -1 -1
5 9 8 6 7 8 9 10 10 12 13 13 13 13 14 13 13 12 13 15 15 15 15 15 15 14 10 7 5 1 1 0 -2 -2 -2 -1 -1 -1 -1 -1 -0 -0 2 3
10 7 5 4 7 7 7 8 11 11 11 12 13 12 14 16 15 15 15 16 16 15 15 13 12 10 6 5 1 -1 -2 -2 -3 -3 -2 -2 -1 -1 -1 -1 -2 0 4 6

GFSCGP_sfc_30mbdewp_036.txt.gz
Dewpoint
25 20 18 20 19 19 16 17 16 19 21 21 21 21 22 24 26 26 26 26 25 25 25 24 24 25 26 28 29 30 32 33 35 37 40 36 34 34 34 34 34 34 36 41
22 18 18 18 21 19 18 17 17 20 22 22 22 22 23 26 27 27 26 26 24 23 23 23 23 24 24 25 26 28 29 31 33 34 34 35 34 33 32 33 32 32 32 33
23 23 23 20 20 18 19 17 18 19 22 22 20 20 22 27 28 28 27 26 24 23 21 22 22 22 22 23 24 24 25 28 30 31 31 31 30 29 28 28 28 27 26 29
23 25 26 24 22 22 20 23 22 22 22 21 20 18 19 25 26 26 26 25 24 24 23 21 20 21 21 21 22 21 21 21 24 26 25 23 21 19 23 24 24 22 22 21
28 26 25 25 25 25 24 26 25 23 21 18 18 18 18 25 24 25 25 24 24 24 22 19 18 19 20 20 20 20 19 18 18 19 18 17 17 18 19 19 18 20 20 21
28 26 26 26 25 26 23 22 22 21 20 18 19 18 18 21 23 25 26 25 24 24 23 21 19 17 17 18 17 16 15 15 16 16 16 13 11 12 12 14 14 17 19 19
25 25 23 22 22 21 21 21 19 16 18 17 21 18 19 23 26 26 25 25 24 24 22 21 17 13 14 15 15 15 15 13 15 14 14 14 14 14 14 15 16 16 17 18
26 24 24 24 21 21 21 21 19 13 11 10 22 18 20 26 27 27 26 25 25 23 23 22 20 14 11 14 16 16 15 13 15 15 14 15 16 16 16 16 16 16 17 17
24 22 24 22 23 22 21 20 22 19 19 19 19 21 25 26 25 25 25 24 24 23 23 23 22 17 11 10 12 15 15 15 14 15 16 16 16 15 16 16 17 17 17 16
25 22 25 24 24 24 23 24 21 22 16 15 17 18 17 22 24 25 24 23 23 24 23 23 23 19 16 12 12 12 15 15 16 16 16 16 16 17 17 17 17 17 17 18
26 25 26 26 23 22 24 23 23 22 20 15 12 11 22 22 25 24 24 24 24 25 24 23 22 21 17 16 14 12 12 13 14 15 15 15 16 16 17 16 17 18 18 19
28 27 24 25 27 27 25 23 23 19 19 21 18 16 28 26 26 25 25 26 27 27 26 24 22 19 17 15 14 12 12 11 13 14 15 16 17 17 17 17 17 18 18 19
30 27 23 23 24 27 26 25 25 25 22 18 17 17 28 27 26 26 26 27 26 26 25 25 21 18 17 15 13 12 13 12 14 15 15 16 16 17 17 18 18 19 18 18
31 27 24 20 20 25 25 25 25 24 21 21 20 20 25 27 26 26 26 26 26 25 24 23 22 18 16 15 12 10 11 14 15 16 15 16 17 18 18 18 18 16 15 13
30 25 26 23 20 23 23 23 24 24 23 21 21 21 22 25 26 26 26 26 24 21 23 22 21 19 16 14 12 11 11 12 15 16 16 17 18 17 17 15 13 11 9 8
29 27 27 26 26 25 23 22 24 24 23 22 22 21 20 25 25 26 25 23 18 18 23 23 21 21 18 15 13 12 11 11 14 15 16 17 16 16 13 10 8 7 7 7
29 27 26 25 19 22 24 25 25 24 23 22 21 22 20 20 19 19 18 17 17 20 23 26 21 18 19 19 18 15 13 13 15 16 16 14 13 9 6 6 6 5 5 6
27 27 26 19 19 17 17 11 19 26 25 24 21 17 16 14 15 16 17 16 16 18 20 23 22 17 15 14 14 15 15 17 17 16 13 13 9 4 4 4 3 4 4 4
27 27 22 20 16 19 18 11 5 7 6 12 19 19 15 14 11 9 11 15 15 14 12 12 12 11 10 11 13 15 17 17 16 13 12 10 5 1 1 -0 2 3 3 2
25 27 27 16 16 15 11 7 8 4 6 4 7 7 11 10 6 4 5 8 10 9 8 8 10 12 11 12 17 16 16 15 12 12 11 7 5 1 -0 1 1 2 2 2
20 21 22 18 18 17 12 8 7 2 4 6 10 11 13 7 2 -0 9 8 9 8 8 9 11 11 12 15 17 16 15 13 11 10 6 4 3 1 0 1 2 1 0 1
17 18 18 19 16 13 11 8 6 7 8 7 11 10 7 4 4 7 9 10 9 8 9 12 13 13 15 16 16 15 14 11 8 5 3 1 0 -0 2 -1 -2 -2 -2 -2
3 9 7 15 12 11 11 10 11 9 5 8 8 8 6 6 7 8 9 11 11 9 9 12 13 14 16 15 15 14 11 7 4 2 -0 -2 -1 -1 -0 -2 -2 -2 -2 -2
8 10 3 5 10 10 11 12 13 13 10 11 11 9 11 10 11 11 11 12 13 13 12 13 14 15 15 13 12 11 7 5 1 -2 -2 -1 -2 -2 -1 -0 0 -1 -2 -2
6 8 8 6 7 9 9 11 10 12 13 13 14 13 12 13 12 12 13 14 14 14 14 15 15 15 15 12 8 4 3 1 -2 -3 -2 -1 -1 -1 -1 -1 -1 -1 0 1
9 6 3 1 5 3 5 7 9 10 9 10 10 11 13 15 13 14 14 15 15 15 15 15 15 15 13 10 7 2 1 -1 -3 -2 -1 -1 -1 -1 -1 -1 -1 1 5 7